Hourly Data Report for February 13, 2019

TORONTO INTL A
ONTARIO
Current Station Operator: NAVCAN

43°40'36.000" N
79°37'50.000" W
173.40 m
6158731
71624
YYZ

Download Data

Hourly Data (February 2019)
Hourly Data Report for February 13, 2019
TIME
LST
Temp Definition
°C
Dew Point Definition
°C
Rel Hum Definition
%
Precip. Amount Definition
mm

Wind Dir Definition
10's deg

Wind Spd Definition
km/h
Visibility Definition
km
Stn Press Definition
kPa
Hmdx Definition


Wind Chill Definition


Weather Definition


00:00 0.5 -0.6 93   19 16 9.7 97.55     Rain, Snow, Fog
01:00 0.8 -0.3 92   21 25 19.3 97.57     Snow
02:00 0.0 -1.4 90   22 36 24.1 97.59   -7 Snow
03:00 -0.6 -2.5 87   22 39 24.1 97.60   -8 Snow
04:00 -1.2 -3.3 86   23 37 24.1 97.61   -9 Snow
05:00 -1.5 -3.8 85   22 32 16.1 97.65   -9 Snow
06:00 -1.8 -4.3 83   23 24 19.3 97.69   -8 Snow
07:00 -2.5 -4.9 83   25 32 9.7 97.75   -10 Snow
08:00 -2.5 -5.3 81   23 20 8.1 97.79   -8 Snow
09:00 -3.0 -5.5 83   21 17 6.4 97.83   -9 Snow
10:00 -3.2 -5.5 84   23 22 2.0 97.86   -10 Snow
11:00 -3.5 -6.0 83   25 33 2.0 97.92   -11 Snow,Blowing Snow
12:00 -3.1 -6.0 80   24 35 6.4 97.97   -11 Snow,Blowing Snow
13:00 -4.5 -7.0 83   26 23 24.1 98.01   -11 Snow
14:00 -4.5 -7.8 78   27 48 4.8 98.07   -14 Blowing Snow
15:00 -3.9 -7.8 74   25 48 8.1 98.12   -13 Blowing Snow
16:00 -4.0 -8.5 71   27 39 8.1 98.22   -13 Snow Showers,Blowing Snow
17:00 -4.5 -8.9 71   25 27 19.3 98.29   -12 Snow
18:00 -4.3 -8.7 72   26 28 24.1 98.35   -12 LegendNANA
19:00 -4.6 -9.2 71   25 39 24.1 98.44   -13 Mostly Cloudy
20:00 -4.6 -9.1 71   26 35 24.1 98.54   -13 LegendNANA
21:00 -4.6 -9.2 70   26 35 24.1 98.63   -13 LegendNANA
22:00 -4.6 -9.1 71   27 30 24.1 98.71   -12 Mostly Cloudy
23:00 -4.6 -8.8 73   27 33 19.3 98.81   -13 Snow

Notes on Data Quality.

Legend

  • E = Estimated
  • M = Missing
  • NA = Not Available*
  • [empty] = Indicates an unobserved value
Date modified: